Regional Weather Roundup
Issued by NWS

Home | Current Version | Previous Version | Graphics & Text | Print | Product List | Glossary On
Versions: 1 2 3 4 5 6 7 8 9 10 11 12 13 14 15 16 17 18 19 20 21 22 23 24 25 26 27 28 29 30 31 32 33 34 35 36 37 38 39 40 41 42 43 44 45 46 47 48 49 50
000
ASUS43 KFSD 260610
RWRSD

WEATHER ROUNDUP FOR SOUTH DAKOTA
NATIONAL WEATHER SERVICE SIOUX FALLS SD
100 AM CDT WED APR 26 2017

NOTE: "FAIR" INDICATES FEW OR NO CLOUDS BELOW 12,000 FEET WITH NO
SIGNIFICANT WEATHER AND/OR OBSTRUCTIONS TO VISIBILITY.


SDZ001>005-009-010-012>017-260700-
NORTHWEST AND NORTH CENTRAL SOUTH DAKOTA

CITY           SKY/WX    TMP DP  RH WIND       PRES   REMARKS
BUFFALO          N/A     30  25  81 NW8       29.85F WCI  22
FAITH            N/A     31  28  89 N13       29.88F WCI  21
MOBRIDGE       CLOUDY    35  25  66 N16G23    29.83F WCI  25
$$

SDZ012>016-024>037-041>051-057-063-072>074-260700-
SOUTHWEST AND SOUTH CENTRAL SOUTH DAKOTA

CITY           SKY/WX    TMP DP  RH WIND       PRES   REMARKS
RAPID CTY ARPT CLOUDY    28  25  88 NW15      29.90F WCI  16
PIERRE         CLOUDY    32  28  85 N12       29.83F WCI  23
CUSTER         LGT SNOW  25  20  81 W3        29.80F
ELLSWORTH AFB  CLOUDY    27  27 100 NW14      29.89  WCI  15
PHILIP         LGT SNOW  30  29  96 NW14      29.88F FOG     WCI  19
PINE RIDGE     CLOUDY    28  26  92 NW8       29.88F WCI  20
SPEARFISH      CLOUDY    25  25 100 W6        29.90F WCI  18
WINNER         CLOUDY    33  29  85 NW17G24   29.82R WCI  22
$$

SDZ004>011-016>023-039-040-260700-
NORTHEAST SOUTH DAKOTA

CITY           SKY/WX    TMP DP  RH WIND       PRES   REMARKS
ABERDEEN       CLOUDY    32  27  81 N17G26    29.78F WCI  21
WATERTOWN      CLOUDY    32  30  92 N16       29.68S WCI  21
BROOKINGS      CLOUDY    34  32  92 N17       29.65F WCI  23
SISSETON         N/A     33  32  96 N23G29    29.72F WCI  21
$$

SDZ017-020-022-023-036>040-048>070-260700-
SOUTHEAST SOUTH DAKOTA

CITY           SKY/WX    TMP DP  RH WIND       PRES   REMARKS
SIOUX FALLS    CLOUDY    37  37 100 NW17      29.64F
HURON          CLOUDY    32  31  96 NW14G23   29.76S FOG     WCI  22
CHAMBERLAIN    CLOUDY    35  31  86 NW18      29.80S WCI  24
MITCHELL       CLOUDY    34  31  88 NW20      29.76S WCI  23
YANKTON        CLOUDY   N/A N/A N/A NW22G29   29.69S
$$

ABBREVIATIONS USED IN REMARKS
   TC - TEMPERATURE IN CELSIUS
  WCI - WIND CHILL INDEX
   HX - HEAT INDEX
  VSB - VISIBILITY





USA.gov is the U.S. government's official web portal to all federal, state and local government web resources and services.